Location: Carabito
(9.8355°N, 67.9249°W)
Time: 22:22:43
(UTC+00:00)

ATLAS 2AS CENTAUR R/B - Pass Details

Date: 23 May 2024
Orbit: 1017 x 1194 km, 63.7° (Epoch: 14 June)

Event Time Altitude Azimuth Distance (km) Brightness Sun altitude
Rises 08:55:21 0° 344° (NNW) 3,774 5.7 -17.7°
Reaches altitude 10° 08:58:03 10° 349° (N) 2,809 5.1 -17.1°
Maximum altitude 09:04:28 55° 66° (ENE) 1,205 3.4 -15.7°
Drops below altitude 10° 09:10:51 10° 143° (SE) 2,802 5.1 -14.2°
Sets 09:13:31 0° 147° (SSE) 3,764 5.7 -13.6°
